Date,TemperatureHighF,TemperatureAvgF,TemperatureLowF,DewpointHighF,DewpointAvgF,DewpointLowF,HumidityHigh,HumidityAvg,HumidityLow,PressureMaxIn,PressureMinIn,WindSpeedMaxMPH,WindSpeedAvgMPH,GustSpeedMaxMPH,PrecipitationSumIn
2013-1-1,30,26,14,29,22,12,94,87,77,30.16,30.02,7,2,9,0.00
2013-1-2,22,11,2,14,7,-1,95,84,66,30.26,30.13,4,1,5,0.00
2013-1-3,30,22,11,26,17,6,88,81,69,30.28,30.18,15,8,19,0.00
2013-1-4,26,21,14,22,17,12,89,85,79,30.29,30.22,16,10,20,0.00
2013-1-5,35,27,16,32,24,14,95,88,78,30.31,30.07,15,7,19,0.00
2013-1-6,36,31,25,33,28,22,94,89,86,30.32,29.96,18,12,20,0.00
2013-1-7,35,26,16,29,23,14,95,88,77,30.42,30.19,15,4,19,0.00
2013-1-8,45,30,21,35,26,19,93,85,65,30.27,30.17,10,3,13,0.00
2013-1-9,44,39,29,37,34,26,92,82,75,30.49,30.12,16,8,21,0.00
2013-1-10,38,32,26,36,29,24,95,88,80,30.51,30.06,7,2,10,0.05
2013-1-11,58,49,37,54,47,35,99,93,81,30.05,29.76,18,6,19,0.41
2013-1-12,60,53,48,56,51,46,98,92,85,29.92,29.68,14,7,19,0.79
2013-1-13,53,38,24,53,37,21,99,96,89,30.15,29.66,17,8,19,1.00
2013-1-14,24,20,16,22,17,14,93,88,85,30.46,30.15,14,6,18,0.00
2013-1-15,19,18,18,18,17,16,94,94,93,30.42,30.41,2,0,2,0.00
2013-1-16,35,29,21,29,24,19,95,85,66,30.12,29.92,13,6,0,0.00
2013-1-17,37,30,21,30,25,17,96,83,68,30.38,30.04,14,5,0,0.00
2013-1-18,37,29,19,28,23,16,89,77,65,30.46,30.06,24,11,0,0.00
2013-1-19,49,42,37,38,33,28,81,71,64,30.07,29.77,23,16,0,0.00
2013-1-20,42,25,20,36,17,12,81,70,58,30.23,29.79,28,11,0,0.00
2013-1-21,20,19,18,12,11,10,72,70,68,30.17,30.14,11,8,0,0.00
2013-1-23,20,17,10,15,9,2,85,71,53,30.36,30.11,13,8,21,0.00
2013-1-24,21,16,5,16,8,2,90,73,54,30.62,30.16,15,4,22,0.00
2013-1-25,26,22,18,22,17,11,90,82,70,30.46,30.02,8,4,12,0.00
2013-1-26,28,25,20,23,19,16,87,80,70,30.43,30.07,11,4,16,0.00
2013-1-27,34,26,14,33,22,11,96,86,77,30.44,30.08,5,1,9,0.13
2013-1-28,49,45,33,48,44,32,99,98,95,30.09,29.90,18,8,22,0.14
2013-1-29,60,56,46,58,54,45,100,96,91,29.93,29.35,22,11,27,0.02
2013-1-30,63,46,29,60,44,26,99,94,88,29.46,29.16,23,12,34,0.43
2013-1-31,29,22,18,26,19,14,92,86,79,29.78,29.47,25,19,33,0.00